sat.trackr.live / text

‹ back to catalog

STARLINK-3996

NORAD 52617 · 2022-052V

PAYLOAD ACTIVE UNKNOWN

§ Identity

Operator
Country
US
Launch date
2022-05-14
Launch site
AFETR
Launch vehicle
Mass (kg)
RCS (m²)

Purposes: comms

External: N2YO · Heavens-Above · Gunter

§ Orbital elements

Epoch: 2026-09-20T00:38:32.396640Z

Period
95.42 min
Inclination
53.1607°
Eccentricity
0.0002641
Mean motion
15.09153477 rev/d
Perigee alt
537.0 km
Apogee alt
540.6 km
Semi-major
6,916.9 km
B*
2.2261e-3
RAAN
116.0489°
Arg perigee
98.9157°
Mean anomaly
261.2134°
Rev number
24,032

§ Raw data

STARLINK-39961 52617U 22052V   26263.02676385  .00035628  00000+0  22261-2 0  99962 52617  53.1607 116.0489 0002641  98.9157 261.2134 15.09153477240328

JSON: /api/v1/satellites/52617 · /tle

For live sub-satellite position, see the globe view (requires WebGL).

§ Visibility from observer

Set your observer location to see the next 7 days of passes ≥ 10°. The values pass through the URL so the page stays shareable.

No JS? Fill the form by hand. The geolocation button needs JavaScript.